Flushing, NY

9:31 PM EDT on September 24, 2016 (GMT -0400)
La Guardia

Weather History for KLGA - February, 2012

Change the Weather History Date:

Friday, February 24, 2012

  Actual Average Record
Temperature  
Mean Temperature 42 °F 37 °F  
Max Temperature 46 °F 44 °F 73 °F (1985)
Min Temperature 37 °F 30 °F 6 °F (2015)
Degree Days  
Heating Degree Days 23 28  
Month to date heating degree days 563 692  
Since 1 July heating degree days 2692 3291  
Cooling Degree Days 0 0  
Month to date cooling degree days 0 0  
Year to date cooling degree days 0 0  
Moisture  
Dew Point 35 °F    
Average Humidity 67    
Maximum Humidity 89    
Minimum Humidity 45    
Precipitation  
Precipitation 0.60 in 0.10 in 1.70 in (1975)
Month to date precipitation 0.93 2.22  
Year to date precipitation 3.44 5.39  
Snow  
Snow 0.00 in 0.30 in 4.10 in (1972)
Month to date snowfall T 7.7  
Since 1 July snowfall 5.1 20.6  
Snow Depth 0.00 in    
Sea Level Pressure  
Sea Level Pressure 29.56 in    
Wind  
Wind Speed 11 mph (NE)    
Max Wind Speed 29 mph    
Max Gust Speed 41 mph    
Visibility 7 miles    
Events Rain    
T = Trace of Precipitation, MM = Missing Value Source: NWS Daily Summary

Daily Weather History Graph

Daily Weather History Graph

Search for Another Location

Airport or City:

Trip Planner

Search our weather history database for the weather conditions in past years. The results will help you decide how hot, cold, wet, or windy it might be!

Date:

Astronomy

Feb. 24, 2012 Rise Set
Actual Time 6:37 AM EST 5:40 PM EST
Civil Twilight 6:10 AM EST 6:08 PM EST
Nautical Twilight 5:38 AM EST 6:39 PM EST
Astronomical Twilight 5:06 AM EST 7:11 PM EST
Moon 7:29 AM EST (2/24) 8:43 PM EST (2/24)
Length of Visible Light 11h 57m
Length of Day
11h 02m
Waxing Crescent, 7% of the Moon is Illuminated
Feb 24
Waxing Crescent
Feb 29
First Quarter
Mar 8
Full
Mar 14
Last Quarter
Mar 22
New

Hourly Weather History & Observations

Time (EST) Temp. Windchill Dew Point Humidity Pressure Visibility Wind Dir Wind Speed Gust Speed Precip Events Conditions
12:51 AM 45.0 °F 41.2 °F 24.1 °F 44% 29.73 in 10.0 mi East 6.9 mph - N/A   Overcast
1:51 AM 45.0 °F 39.7 °F 25.0 °F 46% 29.70 in 10.0 mi ENE 10.4 mph - N/A   Overcast
2:51 AM 42.1 °F 33.9 °F 28.9 °F 60% 29.73 in 10.0 mi NE 17.3 mph 23.0 mph 0.00 in Rain Light Rain
3:51 AM 39.0 °F 29.9 °F 32.0 °F 76% 29.73 in 7.0 mi ENE 17.3 mph 24.2 mph 0.02 in Rain Rain
4:36 AM 37.4 °F 27.8 °F 32.0 °F 81% 29.71 in 6.0 mi ENE 17.3 mph - 0.05 in Rain Light Rain
4:51 AM 37.0 °F 28.9 °F 33.1 °F 86% 29.72 in 9.0 mi ENE 12.7 mph - 0.05 in Rain Light Rain
5:22 AM 37.4 °F 28.9 °F 33.8 °F 87% 29.68 in 4.0 mi ENE 13.8 mph - 0.05 in Rain Heavy Rain
5:49 AM 37.4 °F 29.3 °F 33.8 °F 87% 29.70 in 4.0 mi ENE 12.7 mph - 0.19 in Rain Rain
5:51 AM 37.0 °F 28.9 °F 33.1 °F 86% 29.70 in 5.0 mi East 12.7 mph - 0.19 in Rain Rain
6:51 AM 37.9 °F 29.6 °F 34.0 °F 86% 29.69 in 10.0 mi ENE 13.8 mph - 0.02 in   Overcast
7:17 AM 37.4 °F 28.9 °F 33.8 °F 87% 29.68 in 10.0 mi ENE 13.8 mph - N/A   Overcast
7:31 AM 37.4 °F 28.9 °F 33.8 °F 87% 29.68 in 10.0 mi ENE 13.8 mph - N/A   Overcast
7:40 AM 37.4 °F 29.3 °F 33.8 °F 87% 29.68 in 10.0 mi ENE 12.7 mph - N/A   Overcast
7:49 AM 39.2 °F 32.5 °F 33.8 °F 81% 29.68 in 10.0 mi ENE 10.4 mph - N/A   Overcast
7:51 AM 39.0 °F 31.8 °F 34.0 °F 82% 29.68 in 10.0 mi ENE 11.5 mph - N/A   Overcast
8:51 AM 39.2 °F 32.0 °F 33.8 °F 81% 29.67 in 10.0 mi ENE 11.5 mph - N/A   Overcast
9:06 AM 39.2 °F 32.0 °F 33.8 °F 81% 29.67 in 10.0 mi ENE 11.5 mph - N/A   Overcast
9:48 AM 39.2 °F 32.5 °F 33.8 °F 81% 29.66 in 8.0 mi ENE 10.4 mph - 0.02 in Rain Light Rain
9:51 AM 39.0 °F 31.8 °F 34.0 °F 82% 29.66 in 7.0 mi ENE 11.5 mph - 0.02 in Rain Light Rain
10:51 AM 39.9 °F 32.1 °F 35.1 °F 83% 29.61 in 10.0 mi East 13.8 mph 19.6 mph 0.02 in Rain Light Rain
11:08 AM 39.2 °F 33.0 °F 35.6 °F 87% 29.61 in 10.0 mi NE 9.2 mph - 0.00 in   Overcast
11:51 AM 39.9 °F 35.1 °F 36.0 °F 86% 29.60 in 7.0 mi ENE 6.9 mph - 0.00 in   Overcast
12:51 PM 42.1 °F 37.1 °F 37.0 °F 82% 29.57 in 4.0 mi NE 8.1 mph - N/A   Haze
1:17 PM 41.0 °F 35.2 °F 37.4 °F 87% 29.56 in 2.5 mi NE 9.2 mph - N/A   Overcast
1:51 PM 41.0 °F 35.8 °F 37.0 °F 86% 29.55 in 2.5 mi NE 8.1 mph - 0.00 in   Overcast
1:58 PM 41.0 °F 35.2 °F 37.4 °F 87% 29.55 in 2.0 mi NE 9.2 mph - N/A   Overcast
2:51 PM 41.0 °F 34.7 °F 37.0 °F 86% 29.51 in 2.0 mi NE 10.4 mph - 0.01 in   Light Drizzle
3:51 PM 42.1 °F 36.6 °F 39.0 °F 89% 29.49 in 2.0 mi NE 9.2 mph - 0.00 in   Light Drizzle
4:16 PM 41.0 °F 34.3 °F 37.4 °F 87% 29.46 in 1.5 mi NE 11.5 mph - 0.01 in Rain Light Rain
4:32 PM 41.0 °F 34.7 °F 37.4 °F 87% 29.43 in 1.5 mi NE 10.4 mph - 0.01 in Rain Light Rain
4:51 PM 41.0 °F 35.8 °F 39.0 °F 93% 29.43 in 1.5 mi NE 8.1 mph - 0.01 in   Light Drizzle
5:51 PM 44.1 °F 38.6 °F 41.0 °F 89% 29.39 in 2.0 mi East 10.4 mph - 0.09 in Rain Rain
6:34 PM 44.6 °F 40.7 °F 41.0 °F 87% 29.35 in 5.0 mi NE 6.9 mph - 0.07 in Rain Light Rain
6:51 PM 43.0 °F 38.8 °F 39.9 °F 89% 29.37 in 5.0 mi North 6.9 mph - 0.07 in Rain Light Rain
7:25 PM 42.8 °F 34.5 °F 39.2 °F 87% 29.40 in 6.0 mi NW 18.4 mph 28.8 mph 0.07 in Rain Light Rain
7:49 PM 42.8 °F 37.0 °F 39.2 °F 87% 29.38 in 10.0 mi NW 10.4 mph - 0.09 in Rain Light Rain
7:51 PM 42.1 °F 36.6 °F 39.0 °F 89% 29.37 in 10.0 mi NNW 9.2 mph - 0.09 in Rain Light Rain
8:04 PM 42.8 °F 38.6 °F 39.2 °F 87% 29.37 in 9.0 mi NW 6.9 mph - 0.00 in Rain Light Rain
8:51 PM 42.1 °F 40.2 °F 39.0 °F 89% 29.36 in 10.0 mi WNW 3.5 mph - 0.01 in Rain Light Rain
9:51 PM 43.0 °F 38.8 °F 39.0 °F 86% 29.39 in 10.0 mi West 6.9 mph - 0.00 in   Mostly Cloudy
10:51 PM 45.0 °F 37.6 °F 36.0 °F 71% 29.39 in 10.0 mi West 17.3 mph 25.3 mph N/A   Scattered Clouds
11:51 PM 46.0 °F 38.0 °F 28.9 °F 51% 29.41 in 10.0 mi WNW 21.9 mph 40.3 mph N/A   Scattered Clouds